McConnell AFB, KS

1:41 PM CDT on April 22, 2018 (GMT -0500)
McConnell Air Force Base

Weather History for KIAB - May, 2014

Change the Weather History Date:

Thursday, May 8, 2014

  Actual Average Record
Temperature  
Mean Temperature 74 °F -  
Max Temperature 84 °F 73 °F 91 °F (2011)
Min Temperature 61 °F 52 °F 44 °F (1999)
Cooling Degree Days 8    
Growing Degree Days 24 (Base 50)    
Moisture  
Dew Point 56 °F    
Average Humidity 59    
Maximum Humidity 99    
Minimum Humidity 23    
Precipitation  
Precipitation 0.01 in - - ()
Sea Level Pressure  
Sea Level Pressure 29.69 in    
Wind  
Wind Speed 19 mph (South)    
Max Wind Speed 26 mph    
Max Gust Speed 36 mph    
Visibility 10 miles    
Events Rain , Thunderstorm    
Averages and records for this station are not official NWS values.
T = Trace of Precipitation, MM = Missing Value Source: NWS Daily Summary

Daily Weather History Graph

Daily Weather History Graph

Search for Another Location

Airport or City:

Astronomy

May. 08, 2014 Rise Set
Actual Time 6:26 AM CDT 8:25 PM CDT
Civil Twilight 5:57 AM CDT 8:54 PM CDT
Nautical Twilight 5:22 AM CDT 9:29 PM CDT
Astronomical Twilight 4:44 AM CDT 10:07 PM CDT
Moon 2:34 PM CDT (5/8) 2:50 AM CDT (5/8)
Length of Visible Light 14h 57m
Length of Day
13h 59m
Waxing Gibbous, 65% of the Moon is Illuminated
May 8
Waxing Gibbous
May 14
Full
May 21
Last Quarter
May 28
New
Jun 5
First Quarter

Hourly Weather History & Observations

Time (CDT) Temp. Heat Index Dew Point Humidity Pressure Visibility Wind Dir Wind Speed Gust Speed Precip Events Conditions
12:58 AM 71.4 °F - 63.5 °F 76% 29.65 in 10.0 mi SSE 20.7 mph 24.2 mph N/A   Partly Cloudy
12:59 AM 71.6 °F - 64.4 °F 78% 29.67 in 10.0 mi SSE 21.9 mph 27.6 mph N/A Rain Light Rain
1:11 AM 69.8 °F - 64.4 °F 83% 29.69 in 10.0 mi South 20.7 mph 29.9 mph N/A   Clear
1:41 AM 71.6 °F - 60.8 °F 69% 29.71 in 10.0 mi South 25.3 mph 35.7 mph N/A Rain , Thunderstorm Light Rain
1:42 AM 71.6 °F - 60.8 °F 69% 29.71 in 10.0 mi South 23.0 mph 35.7 mph N/A Thunderstorm Clear
1:58 AM 70.9 °F - 62.4 °F 75% 29.67 in 10.0 mi South 21.9 mph 32.2 mph 0.01 in   Mostly Cloudy
2:58 AM 70.0 °F - 66.7 °F 89% 29.65 in 10.0 mi SSE 20.7 mph 29.9 mph N/A   Clear
3:58 AM 69.1 °F - 67.5 °F 95% 29.65 in 10.0 mi SSE 26.5 mph 32.2 mph N/A   Clear
4:58 AM 68.5 °F - 66.7 °F 94% 29.65 in 10.0 mi SSE 23.0 mph 31.1 mph N/A   Clear
5:58 AM 68.9 °F - 67.6 °F 96% 29.66 in 10.0 mi SSE 16.1 mph - N/A   Mostly Cloudy
6:58 AM 68.5 °F - 68.2 °F 99% 29.68 in 10.0 mi SSE 23.0 mph 28.8 mph N/A   Partly Cloudy
7:58 AM 69.1 °F - 67.1 °F 93% 29.69 in 10.0 mi SSE 21.9 mph 31.1 mph N/A   Partly Cloudy
8:58 AM 69.1 °F - 63.9 °F 83% 29.70 in 10.0 mi South 23.0 mph 31.1 mph N/A   Clear
9:58 AM 70.0 °F - 61.2 °F 73% 29.70 in 10.0 mi SSE 24.2 mph 27.6 mph N/A   Partly Cloudy
10:58 AM 72.7 °F - 61.7 °F 68% 29.70 in 10.0 mi South 18.4 mph 24.2 mph N/A   Partly Cloudy
11:58 AM 79.0 °F - 56.5 °F 46% 29.67 in 10.0 mi SSE 16.1 mph 26.5 mph N/A   Clear
12:58 PM 79.9 °F - 57.6 °F 46% 29.66 in 10.0 mi SSW 13.8 mph - N/A   Clear
1:07 PM 80.6 °F 80.8 °F 57.2 °F 45% 29.69 in 10.0 mi SW 16.1 mph 24.2 mph N/A   Partly Cloudy
1:54 PM 82.4 °F 82.0 °F 57.2 °F 42% 29.68 in 10.0 mi SW 12.7 mph 21.9 mph N/A   Scattered Clouds
1:58 PM 83.3 °F 82.6 °F 56.8 °F 40% 29.65 in 10.0 mi West 12.7 mph 21.9 mph N/A   Scattered Clouds
2:58 PM 83.1 °F - 49.6 °F 31% 29.66 in 10.0 mi West 10.4 mph 21.9 mph N/A   Clear
3:58 PM 83.5 °F - 47.8 °F 29% 29.66 in 10.0 mi NW 12.7 mph 18.4 mph N/A   Clear
4:58 PM 82.9 °F - 42.1 °F 24% 29.66 in 10.0 mi WNW 11.5 mph 18.4 mph N/A   Clear
5:58 PM 81.5 °F - 39.7 °F 23% 29.66 in 10.0 mi WNW 12.7 mph 17.3 mph N/A   Clear
6:58 PM 79.3 °F - 39.2 °F 24% 29.68 in 10.0 mi NW 12.7 mph - N/A   Clear
7:58 PM 75.6 °F - 37.9 °F 26% 29.70 in 10.0 mi NNW 16.1 mph 24.2 mph N/A   Clear
8:58 PM 72.3 °F - 37.8 °F 28% 29.73 in 10.0 mi North 12.7 mph - N/A   Clear
9:58 PM 68.5 °F - 40.3 °F 36% 29.77 in 10.0 mi NNE 8.1 mph - N/A   Clear
10:58 PM 64.8 °F - 41.0 °F 42% 29.79 in 10.0 mi NNE 16.1 mph - N/A   Clear
11:58 PM 61.2 °F - 41.4 °F 48% 29.83 in 10.0 mi NNE 12.7 mph - N/A   Clear